Regional Weather Roundup
Issued by NWS

Home | Current Version | Previous Version | Graphics & Text | Print | Product List | Glossary On
Versions: 1 2 3 4 5 6 7 8 9 10 11 12 13 14 15 16 17 18 19 20 21 22 23 24 25 26 27 28 29 30 31 32 33 34 35 36 37 38 39 40 41 42 43 44 45 46 47 48 49 50
000
ASUS43 KDTX 200801
RWRMI
MICHIGAN HOURLY REGIONAL WEATHER ROUNDUP
NATIONAL WEATHER SERVICE DETROIT/PONTIAC MI
400 AM EDT WED AUG 20 2014

NOTE: "FAIR" INDICATES FEW OR NO CLOUDS BELOW 12,000 FEET WITH NO
SIGNIFICANT WEATHER AND/OR OBSTRUCTION TO VISIBILITY.

MIZ047>049-052>055-059>063-066>070-074>076-081>083-200900-
SOUTHEAST LOWER MICHIGAN

CITY           SKY/WX    TMP DP  RH WIND       PRES   REMARKS
ADRIAN         CLOUDY    64  63  96 SW3       29.80S
ALMA           FOG       67  65  96 SW3       29.77R VSB 1/4
ANN ARBOR      CLOUDY    63  60  90 SW3       29.79S FOG
BAD AXE        CLOUDY    66  66 100 S6        29.78R
CARO           CLOUDY    65  64  97 CALM      29.77S
DETROIT CITY   CLOUDY    70  66  87 SW3       29.79S
DETROIT        CLOUDY    67  66  97 SE5       29.79R
FLINT          MOCLDY    66  63  90 S5        29.78R
GROSSE ILE     CLOUDY    72  66  83 S12       29.79R
HILLSDALE      MOCLDY    66  66 100 CALM      29.79S FOG
HOWELL         MOCLDY    62  62  99 SE5       29.78S

CITY           SKY/WX    TMP DP  RH WIND       PRES   REMARKS
JACKSON        MOCLDY    66  64  93 CALM      29.78S
LAMBERTVILLE   CLOUDY    66  63  88 CALM      29.79F FOG
LANSING        PTCLDY    65  63  93 CALM      29.77S FOG
LAPEER         FAIR      64  62  94 CALM      29.79R
MASON          MOCLDY    63  62  97 SE3       29.77S FOG
MONROE         CLOUDY    68  66  94 SE5       29.77S
MT. CLEMENS    CLOUDY    67  67  99 CALM      29.78S
PONTIAC        MOCLDY    64  62  93 CALM      29.78F
PORT HOPE        N/A     67  64  90 CALM      29.76S
PORT HURON     MOCLDY    66  66 100 CALM      29.78F
TRI CITIES     CLOUDY    68  66  93 SW5       29.77R FOG
TROY           CLOUDY    68  65  90 CALM      29.80S
SAGINAW HB     CLOUDY    66  66 100 S3        29.76S
$$
MIZ043>046-050>051-056>058-064>065-071>073-077>080-200900-
SOUTHWEST LOWER MICHIGAN

CITY           SKY/WX    TMP DP  RH WIND       PRES   REMARKS
BATTLE CREEK   MOCLDY    67  65  93 CALM      29.79R
BENTON HARBOR  CLEAR     68  65  90 W3        29.78R
BIG RAPIDS     FOG       65  65 100 CALM      29.77R VSB 3/4
COLDWATER      PTCLDY    67  66  96 SW3       29.79S
FREMONT        FOG       64  63  98 SW3       29.77R VSB 1/4
HOLLAND        CLEAR     68  66  93 W3        29.78R
GRAND RAPIDS   CLEAR     66  66 100 W6        29.78R FOG
IONIA          FOG       64  63  97 CALM      29.77R VSB 1/2
KALAMAZOO      CLEAR     68  66  93 CALM      29.78R FOG
LUDINGTON      CLOUDY    62  61  96 CALM      29.77S FOG
MARSHALL       PTCLDY    65  64  97 CALM      29.77S
MOUNT PLEASANT CLOUDY    67  66  96 CALM      29.76R FOG
MUSKEGON       PTCLDY    66  63  90 W3        29.77R
SOUTH HAVEN    CLEAR     67  67 100 CALM      29.78R
$$
MIZ016>042-200900-
NORTHERN LOWER MICHIGAN

CITY           SKY/WX    TMP DP  RH WIND       PRES   REMARKS
ALPENA         CLEAR     65  64  97 CALM      29.73F FOG
BEAVER ISLAND  CLOUDY    63  63  99 CALM      29.73S FOG
BELLAIRE       MOCLDY    65  63  94 CALM      29.73S FOG
CADILLAC       CLOUDY    64  64 100 SW6       29.77R FOG
CHARLEVOIX     MOCLDY    65  65 100 CALM      29.75S
FRANKFORT      CLOUDY    64  61  90 CALM      29.75S FOG
GAYLORD        FOG       63  63 100 CALM      29.75F VSB 1/2
GRAYLING       FOG       61  61 100 CALM      29.76S VSB 1/4
HARBOR SPRINGS FOG       64  64  97 NE3       29.73S VSB 1/2
HOUGHTON LAKE  CLOUDY    64  64 100 S3        29.77R FOG
MANISTEE       CLOUDY    63  61  94 W3        29.77R
OSCODA         MOCLDY    67  66  99 S3        29.74S FOG
PELLSTON       FOG       61  61 100 CALM      29.74S VSB 1/4
ROGERS CITY    FOG       63  63 100 MISG      29.74S VSB 1/2
TRAVERSE CITY  CLOUDY    66  63  90 W8        29.73S
$$
MIZ007>008-015-200900-
EASTERN UPPER MICHIGAN

CITY           SKY/WX    TMP DP  RH WIND       PRES   REMARKS
KINROSS        CLOUDY    61  61 100 CALM      29.75R VSB 3/4
MACKINAC ISLAN FOG       59  59 100 CALM      29.74R VSB 1/4
NEWBERRY       FOG       59  59 100 CALM      29.74S VSB 3/4
S. S. MARIE    CLOUDY    61  58  90 NE3       29.74R
$$
MIZ004>006-011>014-085-200900-
CENTRAL UPPER MICHIGAN

CITY           SKY/WX    TMP DP  RH WIND       PRES   REMARKS
MANISTIQUE     RAIN      61  61 100 CALM      29.74R VSB 3/4
ESCANABA       CLOUDY    61  57  88 NW5       29.75R
MENOMINEE      CLOUDY    63  59  88 NW3       29.75R
SAWYER-GWINN   CLOUDY    58  57  97 N5        29.77R
$$
MIZ001>003-009>011-084-200900-
WESTERN UPPER MICHIGAN

CITY           SKY/WX    TMP DP  RH WIND       PRES   REMARKS
IRON MOUNTAIN  CLOUDY    60  57  89 NW9       29.76S
HOUGHTON       LGT RAIN  56  54  93 NW6       29.79S FOG
COPPER HARBOR    N/A     55  54  96 N9        29.77S
IRONWOOD       CLOUDY    55  55 100 N3        29.80S VSB 1
$$

ABBREVIATIONS USED IN REMARKS
   TC - TEMPERATURE IN CELSIUS
  WCI - WIND CHILL INDEX
   HX - HEAT INDEX
  VSB - VISIBILITY



USA.gov is the U.S. government's official web portal to all federal, state and local government web resources and services.